User: anonymous   Login
Location: Vancouver
(49.2500°N, 123.1330°W)
Time: 16:21:12
(UTC-08:00)
Language:

Cosmos 1408 Rocket - Orbit

View from above orbital plane
View from above orbital plane
View from above satellite
View from above satellite

Ground track
Ground track

The orbit data is extracted from the following two-line orbital elements,

1 13553U 82092B   18020.17513708  .00000071  00000-0  54877-5 0  9995
2 13553  82.5674  31.9154 0022635  50.6026 355.7625 14.84154654909228
Epoch (UTC): 20 January 2018 04:12:11
Eccentricity: 0.0022635
inclination: 82.5674°
perigee height: 600 km
apogee height: 632 km
right ascension of ascending node: 31.9154°
argument of perigee: 50.6026°
revolutions per day: 14.84154654
mean anomaly at epoch: 355.7625°
orbit number at epoch: 90922

The dashed part of the orbit path shows where the satellite is in the earth's shadow,  

DLR